When you browse on this site, cookies collect data to enhance your experience and personalize the content and advertising you see.
Visit our Privacy Policy to learn more. By continuing to use the site, you agree to this use of cookies and data.
  • In United Kingdom
  • List of Countries
  • For 7 days
  • Water Temperature
  • Weather Map
  • Weather Widgets
  • user-avatar
    Login

    Hourly Weather Abergavenny

    Today, 30 March, Monday

    Time Temperature Precipitation Wind Pressure Humidity
    00:00 -2°C° 0 mm 3 mps 764 mmHg 81%
    01:00 -4°C° 0 mm 3 mps 763 mmHg 81%
    02:00 -4°C° 0 mm 3 mps 763 mmHg 81%
    03:00 -4°C° 0 mm 3 mps 762 mmHg 80%
    04:00 -4°C° 0 mm 3 mps 762 mmHg 80%
    05:00 -4°C° 0 mm 3 mps 762 mmHg 80%
    06:00 -4°C° 0 mm 3 mps 762 mmHg 80%
    07:00 -1°C° 0 mm 4 mps 761 mmHg 77%
    08:00 +1°C° 0 mm 4 mps 761 mmHg 74%
    09:00 +3°C° 0 mm 5 mps 761 mmHg 70%
    10:00 +4°C° 0 mm 6 mps 761 mmHg 70%
    11:00 +4°C° 0 mm 6 mps 760 mmHg 70%
    12:00 +5°C° 0 mm 6 mps 760 mmHg 69%
    13:00 +5°C° 0.1 mm 6 mps 760 mmHg 70%
    14:00 +5°C° 0.1 mm 6 mps 759 mmHg 70%
    15:00 +5°C° 0.1 mm 6 mps 759 mmHg 71%
    16:00 +5°C° 0.1 mm 6 mps 759 mmHg 74%
    17:00 +5°C° 0.1 mm 5 mps 759 mmHg 77%
    18:00 +5°C° 0.1 mm 5 mps 758 mmHg 80%
    19:00 +3°C° 0 mm 5 mps 759 mmHg 83%
    20:00 +2°C° 0 mm 5 mps 759 mmHg 87%
    21:00 +1°C° 0 mm 5 mps 759 mmHg 91%
    22:00 0°C° 0 mm 4 mps 759 mmHg 92%
    23:00 0°C° 0 mm 4 mps 759 mmHg 93%

    Tomorrow, 31 March, Tuesday

    Time Temperature Precipitation Wind Pressure Humidity
    00:00 -1°C° 0 mm 4 mps 759 mmHg 93%
    01:00 -1°C° 0 mm 4 mps 759 mmHg 94%
    02:00 -1°C° 0 mm 4 mps 758 mmHg 94%
    03:00 -2°C° 0 mm 4 mps 758 mmHg 95%
    04:00 -2°C° 0 mm 4 mps 758 mmHg 95%
    05:00 -2°C° 0 mm 4 mps 758 mmHg 95%
    06:00 -2°C° 0 mm 4 mps 759 mmHg 96%
    07:00 -1°C° 0 mm 4 mps 759 mmHg 90%
    08:00 +1°C° 0 mm 5 mps 759 mmHg 85%
    09:00 +2°C° 0 mm 6 mps 759 mmHg 79%
    10:00 +3°C° 0 mm 6 mps 759 mmHg 74%
    11:00 +6°C° 0 mm 5 mps 759 mmHg 69%
    12:00 +7°C° 0 mm 5 mps 759 mmHg 64%
    13:00 +7°C° 0 mm 5 mps 758 mmHg 64%
    14:00 +7°C° 0 mm 5 mps 758 mmHg 64%
    15:00 +8°C° 0 mm 4 mps 757 mmHg 64%
    16:00 +7°C° 0 mm 4 mps 757 mmHg 69%
    17:00 +7°C° 0 mm 3 mps 757 mmHg 74%
    18:00 +5°C° 0 mm 3 mps 757 mmHg 80%
    19:00 +4°C° 0 mm 3 mps 757 mmHg 82%
    20:00 +2°C° 0 mm 3 mps 756 mmHg 85%
    21:00 +2°C° 0 mm 2 mps 756 mmHg 88%
    22:00 +1°C° 0 mm 2 mps 756 mmHg 88%
    23:00 +1°C° 0 mm 2 mps 756 mmHg 89%

    Day after tomorrow, 1 April, Wednesday

    Time Temperature Precipitation Wind Pressure Humidity
    00:00 -1°C° 0 mm 2 mps 756 mmHg 90%
    01:00 -1°C° 0 mm 2 mps 755 mmHg 90%
    02:00 +1°C° 0 mm 1 mps 755 mmHg 90%
    03:00 0°C° 0 mm 1 mps 754 mmHg 90%
    04:00 0°C° 0 mm 1 mps 754 mmHg 90%
    05:00 +1°C° 0 mm 1 mps 754 mmHg 89%
    06:00 +1°C° 0 mm 1 mps 754 mmHg 89%
    07:00 +2°C° 0 mm 1 mps 753 mmHg 83%
    08:00 +4°C° 0 mm 1 mps 753 mmHg 77%
    09:00 +6°C° 0 mm 1 mps 753 mmHg 71%
    10:00 +5°C° 0 mm 2 mps 753 mmHg 68%
    11:00 +6°C° 0 mm 2 mps 753 mmHg 66%
    12:00 +6°C° 0 mm 2 mps 753 mmHg 64%
    13:00 +7°C° 0 mm 2 mps 752 mmHg 64%
    14:00 +7°C° 0 mm 2 mps 752 mmHg 64%
    15:00 +7°C° 0 mm 3 mps 751 mmHg 65%
    16:00 +7°C° 0 mm 2 mps 751 mmHg 68%
    17:00 +6°C° 0 mm 2 mps 751 mmHg 71%
    18:00 +6°C° 0 mm 2 mps 750 mmHg 73%
    19:00 +5°C° 0 mm 2 mps 751 mmHg 76%
    20:00 +4°C° 0 mm 2 mps 751 mmHg 79%
    21:00 +4°C° 0 mm 1 mps 751 mmHg 82%
    22:00 +4°C° 0 mm 1 mps 750 mmHg 84%
    23:00 +3°C° 0 mm 1 mps 750 mmHg 86%

    2 April, Thursday

    Time Temperature Precipitation Wind Pressure Humidity
    00:00 +2°C° 0 mm 1 mps 750 mmHg 88%
    01:00 +3°C° 0 mm 1 mps 750 mmHg 89%
    02:00 +3°C° 0 mm 1 mps 749 mmHg 90%
    03:00 +2°C° 0 mm 2 mps 749 mmHg 91%
    04:00 +3°C° 0 mm 2 mps 749 mmHg 91%
    05:00 +4°C° 0 mm 1 mps 748 mmHg 92%
    06:00 +5°C° 0 mm 1 mps 748 mmHg 92%
    07:00 +5°C° 0 mm 2 mps 748 mmHg 87%
    08:00 +5°C° 0 mm 3 mps 748 mmHg 83%
    09:00 +7°C° 0 mm 4 mps 748 mmHg 78%
    10:00 +7°C° 0 mm 4 mps 747 mmHg 77%
    11:00 +8°C° 0 mm 5 mps 747 mmHg 76%
    12:00 +8°C° 0 mm 5 mps 747 mmHg 76%
    13:00 +8°C° 0 mm 5 mps 747 mmHg 75%
    14:00 +8°C° 0 mm 5 mps 746 mmHg 75%
    15:00 +8°C° 0 mm 6 mps 746 mmHg 75%
    16:00 +8°C° 0 mm 5 mps 746 mmHg 77%
    17:00 +7°C° 0 mm 4 mps 745 mmHg 80%
    18:00 +8°C° 0 mm 3 mps 745 mmHg 82%
    19:00 +7°C° 0 mm 3 mps 745 mmHg 86%
    20:00 +5°C° 0 mm 3 mps 746 mmHg 89%
    21:00 +5°C° 0 mm 2 mps 746 mmHg 93%
    22:00 +5°C° 0 mm 2 mps 746 mmHg 93%
    23:00 +4°C° 0 mm 2 mps 746 mmHg 93%

    3 April, Friday

    Time Temperature Precipitation Wind Pressure Humidity
    00:00 +3°C° 0 mm 2 mps 746 mmHg 94%
    01:00 +3°C° 0 mm 2 mps 746 mmHg 94%
    02:00 +3°C° 0 mm 2 mps 746 mmHg 94%
    03:00 +3°C° 0 mm 1 mps 746 mmHg 94%
    04:00 +3°C° 0 mm 1 mps 747 mmHg 93%
    05:00 +2°C° 0 mm 1 mps 747 mmHg 93%
    06:00 +2°C° 0 mm 1 mps 747 mmHg 92%
    07:00 +4°C° 0 mm 1 mps 748 mmHg 86%
    08:00 +6°C° 0 mm 1 mps 748 mmHg 79%
    09:00 +7°C° 0 mm 1 mps 748 mmHg 73%
    10:00 +8°C° 0 mm 1 mps 749 mmHg 72%
    11:00 +8°C° 0 mm 1 mps 749 mmHg 71%
    12:00 +9°C° 0 mm 1 mps 749 mmHg 70%
    13:00 +9°C° 0 mm 1 mps 749 mmHg 71%
    14:00 +9°C° 0 mm 1 mps 749 mmHg 72%
    15:00 +9°C° 0 mm 1 mps 749 mmHg 73%
    16:00 +9°C° 0.1 mm 1 mps 749 mmHg 77%
    17:00 +8°C° 0.1 mm 1 mps 749 mmHg 80%
    18:00 +8°C° 0.1 mm 1 mps 749 mmHg 83%
    19:00 +7°C° 0 mm 1 mps 749 mmHg 84%
    20:00 +6°C° 0 mm 1 mps 749 mmHg 86%
    21:00 +6°C° 0 mm 1 mps 750 mmHg 87%
    22:00 +5°C° 0 mm 1 mps 750 mmHg 88%
    23:00 +5°C° 0 mm 1 mps 750 mmHg 90%

    4 April, Saturday

    Time Temperature Precipitation Wind Pressure Humidity
    00:00 +4°C° 0 mm 1 mps 750 mmHg 91%
    01:00 +4°C° 0 mm 1 mps 750 mmHg 92%
    02:00 +4°C° 0 mm 1 mps 750 mmHg 93%
    03:00 +5°C° 0 mm 1 mps 750 mmHg 94%
    04:00 +5°C° 0 mm 1 mps 750 mmHg 94%
    05:00 +5°C° 0 mm 1 mps 750 mmHg 94%
    06:00 +5°C° 0 mm 1 mps 750 mmHg 94%
    07:00 +5°C° 0 mm 2 mps 750 mmHg 89%
    08:00 +6°C° 0 mm 2 mps 750 mmHg 85%
    09:00 +8°C° 0 mm 3 mps 750 mmHg 80%
    10:00 +8°C° 0 mm 3 mps 750 mmHg 76%
    11:00 +9°C° 0 mm 3 mps 750 mmHg 71%
    12:00 +10°C° 0 mm 3 mps 750 mmHg 67%
    13:00 +11°C° 0.1 mm 3 mps 750 mmHg 66%
    14:00 +11°C° 0.1 mm 3 mps 750 mmHg 66%
    15:00 +11°C° 0.1 mm 3 mps 750 mmHg 66%
    16:00 +10°C° 0.1 mm 2 mps 750 mmHg 71%
    17:00 +10°C° 0.1 mm 2 mps 750 mmHg 75%
    18:00 +10°C° 0.1 mm 1 mps 750 mmHg 79%
    19:00 +9°C° 0 mm 1 mps 750 mmHg 81%
    20:00 +8°C° 0 mm 1 mps 750 mmHg 82%
    21:00 +7°C° 0 mm 1 mps 751 mmHg 84%
    22:00 +7°C° 0 mm 1 mps 751 mmHg 86%
    23:00 +6°C° 0 mm 1 mps 751 mmHg 88%
    Show more